Location: Budapest
(47.4979°N, 19.0402°E)
Time: 09:59:33
(UTC+02:00)

Envisat - Pass Details

Date: 23 May 2024
Orbit: 762 x 764 km, 98.3° (Epoch: 19 June)

Event Time Altitude Azimuth Distance (km) Brightness Sun altitude
Rises 03:31:31 0° 20° (NNE) 3,239 7.7 -11.8°
Reaches altitude 10° 03:33:58 10° 28° (NNE) 2,308 6.9 -11.5°
Maximum altitude 03:38:45 40° 97° (E) 1,115 4.2 -11.0°
Drops below altitude 10° 03:43:29 10° 167° (SSE) 2,290 5.1 -10.5°
Enters shadow 03:45:50 - 175° (S) 3,187 5.8 -10.2°
